| time (UTC) | temp C | wind direction | speed KPH | gust KPH | rain 1hr cm | rain 24hr cm | rain mn cm | humidity % | barometer mb |
| 20260906161504 | 22 | 139 | 11.3 | 20.9 | 0.00 | 0.00 | 0.00 | 84 | 1020.2 |
| 20260906160010 | 22 | 74 | 6.4 | 24.1 | 0.00 | 0.00 | 0.00 | 86 | 1020.2 |
| 20260906154506 | 22 | 146 | 6.4 | 22.5 | 0.00 | 0.00 | 0.00 | 86 | 1020.2 |
| 20260906153009 | 22 | 74 | 8.0 | 16.1 | 0.00 | 0.00 | 0.00 | 88 | 1020.2 |
| 20260906151512 | 21 | 115 | 6.4 | 19.3 | 0.00 | 0.00 | 0.00 | 89 | 1020.5 |
| 20260906150009 | 21 | 115 | 6.4 | 19.3 | 0.00 | 0.00 | 0.00 | 90 | 1020.5 |
| 20260906144510 | 21 | 71 | 8.0 | 17.7 | 0.00 | 0.00 | 0.00 | 90 | 1020.3 |
| 20260906143006 | 21 | 141 | 9.7 | 29.0 | 0.00 | 0.00 | 0.00 | 91 | 1020.3 |
| 20260906141508 | 21 | 142 | 11.3 | 24.1 | 0.00 | 0.00 | 0.00 | 92 | 1020.2 |
| 20260906140015 | 20 | 68 | 11.3 | 24.1 | 0.00 | 0.00 | 0.00 | 93 | 1020.1 |
| 20260906134510 | 20 | 132 | 6.4 | 16.1 | 0.00 | 0.00 | 0.00 | 94 | 1020.0 |
| 20260906133008 | 20 | 165 | 4.8 | 17.7 | 0.00 | 0.00 | 0.00 | 94 | 1019.8 |
| 20260906131511 | 20 | 108 | 8.0 | 14.5 | 0.00 | 0.00 | 0.00 | 95 | 1019.7 |
| 20260906130019 | 19 | 100 | 3.2 | 16.1 | 0.00 | 0.00 | 0.00 | 94 | 1019.4 |
| 20260906124508 | 19 | 82 | 4.8 | 14.5 | 0.00 | 0.00 | 0.00 | 94 | 1019.5 |
| 20260906123017 | 19 | 86 | 6.4 | 14.5 | 0.00 | 0.00 | 0.00 | 94 | 1019.3 |
| 20260906121522 | 19 | 71 | 3.2 | 11.3 | 0.00 | 0.00 | 0.00 | 94 | 1019.3 |
| 20260906120013 | 18 | 93 | 3.2 | 11.3 | 0.00 | 0.00 | 0.00 | 93 | 1019.2 |
| 20260906114522 | 18 | 116 | 1.6 | 9.7 | 0.00 | 0.00 | 0.00 | 93 | 1019.1 |
| 20260906113036 | 19 | 57 | 3.2 | 8.0 | 0.00 | 0.00 | 0.00 | 93 | 1018.9 |
| 20260906111515 | 19 | 76 | 1.6 | 4.8 | 0.00 | 0.00 | 0.00 | 93 | 1018.9 |
| 20260906110019 | 19 | 146 | 1.6 | 9.7 | 0.00 | 0.00 | 0.00 | 92 | 1018.9 |
| 20260906104527 | 19 | 137 | 3.2 | 6.4 | 0.00 | 0.00 | 0.00 | 92 | 1018.7 |
| 20260906103010 | 19 | 119 | 4.8 | 12.9 | 0.00 | 0.00 | 0.00 | 92 | 1018.8 |
| 20260906101519 | 20 | 137 | 4.8 | 11.3 | 0.00 | 0.00 | 0.00 | 92 | 1018.7 |
| 20260906100019 | 20 | 83 | 3.2 | 9.7 | 0.00 | 0.00 | 0.00 | 91 | 1018.6 |
| 20260906094504 | 20 | 76 | 3.2 | 11.3 | 0.00 | 0.00 | 0.00 | 91 | 1018.3 |
| 20260906093013 | 20 | 137 | 1.6 | 9.7 | 0.00 | 0.00 | 0.00 | 90 | 1018.3 |
| 20260906091524 | 20 | 110 | 3.2 | 11.3 | 0.00 | 0.00 | 0.00 | 90 | 1018.0 |
| 20260906090007 | 20 | 105 | 6.4 | 14.5 | 0.00 | 0.00 | 0.00 | 90 | 1018.0 |
| 20260906084506 | 20 | 90 | 8.0 | 14.5 | 0.00 | 0.00 | 0.00 | 90 | 1018.0 |
| 20260906083016 | 21 | 72 | 4.8 | 16.1 | 0.00 | 0.00 | 0.00 | 89 | 1017.8 |
| 20260906081539 | 21 | 105 | 8.0 | 14.5 | 0.00 | 0.00 | 0.00 | 89 | 1017.7 |
| 20260906080020 | 21 | 98 | 6.4 | 19.3 | 0.00 | 0.00 | 0.00 | 89 | 1017.7 |
| 20260906074517 | 21 | 88 | 4.8 | 14.5 | 0.00 | 0.00 | 0.00 | 89 | 1017.8 |
| 20260906073008 | 21 | 87 | 4.8 | 16.1 | 0.00 | 0.00 | 0.00 | 88 | 1017.9 |
| 20260906071527 | 21 | 74 | 8.0 | 14.5 | 0.00 | 0.00 | 0.00 | 88 | 1018.0 |
| 20260906070024 | 21 | 71 | 3.2 | 11.3 | 0.00 | 0.00 | 0.00 | 88 | 1018.2 |
| 20260906064514 | 21 | 103 | 6.4 | 17.7 | 0.00 | 0.00 | 0.00 | 88 | 1018.3 |
| 20260906063019 | 21 | 86 | 6.4 | 16.1 | 0.00 | 0.00 | 0.00 | 88 | 1018.2 |
| 20260906061518 | 21 | 88 | 3.2 | 12.9 | 0.00 | 0.00 | 0.00 | 88 | 1018.3 |
| 20260906060024 | 21 | 93 | 4.8 | 12.9 | 0.00 | 0.00 | 0.00 | 89 | 1018.1 |
| 20260906054515 | 21 | 72 | 4.8 | 11.3 | 0.00 | 0.00 | 0.00 | 89 | 1018.2 |
| 20260906053032 | 21 | 103 | 3.2 | 12.9 | 0.00 | 0.00 | 0.00 | 89 | 1018.2 |
| 20260906051531 | 21 | 93 | 4.8 | 11.3 | 0.00 | 0.00 | 0.00 | 89 | 1018.2 |
| 20260906050033 | 21 | 70 | 3.2 | 12.9 | 0.00 | 0.00 | 0.00 | 88 | 1018.5 |
| 20260906044532 | 21 | 93 | 4.8 | 12.9 | 0.00 | 0.00 | 0.00 | 88 | 1018.6 |
| 20260906043016 | 21 | 75 | 6.4 | 12.9 | 0.00 | 0.00 | 0.00 | 88 | 1018.6 |
| 20260906041531 | 21 | 78 | 4.8 | 9.7 | 0.00 | 0.00 | 0.00 | 88 | 1018.7 |
| 20260906040031 | 22 | 103 | 0.0 | 6.4 | 0.00 | 0.00 | 0.00 | 87 | 1018.6 |
| 20260906034523 | 22 | 51 | 4.8 | 11.3 | 0.00 | 0.00 | 0.00 | 85 | 1018.5 |
| 20260906033039 | 22 | 70 | 4.8 | 9.7 | 0.00 | 0.00 | 0.00 | 85 | 1018.4 |
| 20260906031529 | 22 | 51 | 1.6 | 11.3 | 0.00 | 0.00 | 0.00 | 85 | 1018.5 |
| 20260906030024 | 22 | 86 | 4.8 | 11.3 | 0.00 | 0.00 | 0.00 | 84 | 1018.5 |
| 20260906024517 | 22 | 93 | 4.8 | 9.7 | 0.00 | 0.00 | 0.00 | 84 | 1018.6 |
| 20260906023026 | 22 | 93 | 3.2 | 12.9 | 0.00 | 0.00 | 0.00 | 84 | 1018.6 |
| 20260906021531 | 23 | 93 | 1.6 | 9.7 | 0.00 | 0.00 | 0.00 | 84 | 1018.3 |
| 20260906020031 | 23 | 79 | 3.2 | 9.7 | 0.00 | 0.00 | 0.00 | 83 | 1017.8 |
| 20260906014528 | 23 | 133 | 3.2 | 8.0 | 0.00 | 0.00 | 0.00 | 82 | 1017.4 |
| 20260906013026 | 23 | 150 | 6.4 | 14.5 | 0.00 | 0.00 | 0.00 | 81 | 1017.2 |
| 20260906011523 | 24 | 135 | 3.2 | 12.9 | 0.00 | 0.00 | 0.00 | 80 | 1016.9 |
| 20260906010033 | 25 | 87 | 4.8 | 12.9 | 0.00 | 0.00 | 0.00 | 78 | 1016.7 |
| 20260906004527 | 25 | 151 | 3.2 | 14.5 | 0.00 | 0.00 | 0.00 | 76 | 1016.6 |
| 20260906003006 | 26 | 84 | 4.8 | 14.5 | 0.00 | 0.00 | 0.00 | 73 | 1016.7 |
| 20260906001506 | 26 | 123 | 6.4 | 16.1 | 0.00 | 0.00 | 0.00 | 70 | 1016.5 |
| 20260906000004 | 27 | 115 | 3.2 | 17.7 | 0.00 | 0.00 | 0.00 | 69 | 1016.4 |
| 20260905234525 | 28 | 80 | 3.2 | 19.3 | 0.00 | 0.00 | 0.00 | 66 | 1016.3 |
| 20260905233006 | 28 | 110 | 4.8 | 20.9 | 0.00 | 0.00 | 0.00 | 65 | 1016.3 |
| 20260905231514 | 29 | 77 | 4.8 | 14.5 | 0.00 | 0.00 | 0.00 | 65 | 1016.0 |
| 20260905230015 | 29 | 110 | 8.0 | 20.9 | 0.00 | 0.00 | 0.00 | 64 | 1015.9 |
| 20260905224508 | 29 | 63 | 12.9 | 24.1 | 0.00 | 0.00 | 0.00 | 62 | 1015.6 |
| 20260905223007 | 29 | 93 | 11.3 | 22.5 | 0.00 | 0.00 | 0.00 | 63 | 1015.4 |
| 20260905221520 | 28 | 121 | 14.5 | 24.1 | 0.00 | 0.00 | 0.00 | 65 | 1015.4 |
| 20260905220026 | 28 | 113 | 11.3 | 20.9 | 0.00 | 0.00 | 0.00 | 68 | 1015.7 |
| 20260905214507 | 28 | 93 | 8.0 | 17.7 | 0.00 | 0.00 | 0.00 | 69 | 1015.9 |
| 20260905213016 | 28 | 80 | 6.4 | 17.7 | 0.00 | 0.00 | 0.00 | 67 | 1016.1 |
| 20260905211524 | 28 | 93 | 9.7 | 22.5 | 0.00 | 0.00 | 0.00 | 64 | 1016.0 |
| 20260905210029 | 30 | 86 | 8.0 | 27.4 | 0.00 | 0.00 | 0.00 | 63 | 1016.1 |
| 20260905204531 | 30 | 93 | 9.7 | 22.5 | 0.00 | 0.00 | 0.00 | 65 | 1016.0 |
| 20260905203036 | 29 | 85 | 9.7 | 29.0 | 0.00 | 0.00 | 0.00 | 68 | 1016.2 |
| 20260905201526 | 29 | 64 | 11.3 | 29.0 | 0.00 | 0.00 | 0.00 | 67 | 1016.5 |
| 20260905200025 | 29 | 90 | 11.3 | 22.5 | 0.00 | 0.00 | 0.00 | 68 | 1017.0 |
| 20260905194537 | 28 | 57 | 12.9 | 20.9 | 0.00 | 0.00 | 0.00 | 69 | 1017.3 |
| 20260905193036 | 28 | 55 | 14.5 | 22.5 | 0.00 | 0.00 | 0.00 | 73 | 1017.3 |
| 20260905191526 | 27 | 72 | 4.8 | 11.3 | 0.00 | 0.00 | 0.00 | 75 | 1017.7 |
| 20260905190031 | 26 | 105 | 3.2 | 6.4 | 0.00 | 0.00 | 0.00 | 77 | 1017.9 |
| 20260905184532 | 26 | 146 | 3.2 | 9.7 | 0.00 | 0.00 | 0.00 | 78 | 1017.9 |
| 20260905183024 | 26 | 128 | 1.6 | 8.0 | 0.00 | 0.00 | 0.00 | 77 | 1018.0 |
| 20260905181524 | 26 | 178 | 3.2 | 14.5 | 0.00 | 0.00 | 0.00 | 79 | 1018.2 |
| 20260905180007 | 25 | 128 | 3.2 | 14.5 | 0.00 | 0.00 | 0.00 | 82 | 1018.4 |
| 20260905174513 | 24 | 116 | 1.6 | 12.9 | 0.00 | 0.00 | 0.00 | 84 | 1018.3 |
| 20260905173013 | 23 | 67 | 1.6 | 14.5 | 0.00 | 0.00 | 0.00 | 84 | 1018.9 |
| 20260905171506 | 23 | 107 | 8.0 | 17.7 | 0.00 | 0.00 | 0.00 | 85 | 1018.9 |
| 20260905170012 | 23 | 93 | 4.8 | 14.5 | 0.00 | 0.00 | 0.00 | 86 | 1019.1 |
| 20260905164518 | 23 | 76 | 6.4 | 12.9 | 0.00 | 0.00 | 0.00 | 87 | 1019.0 |
| 20260905163024 | 22 | 82 | 8.0 | 16.1 | 0.00 | 0.00 | 0.00 | 87 | 1019.2 |